Regional Weather Roundup
Issued by NWS Grand Forks, ND

Home | Current Version | Previous Version | Graphics & Text | Print | Product List | Glossary On
Versions: 1 2 3 4 5 6 7 8 9 10 11 12 13 14 15 16 17 18 19 20 21 22 23 24 25 26 27 28 29 30 31 32 33 34 35 36 37 38 39 40 41 42 43 44 45 46 47 48 49 50
000
ASUS43 KFGF 160631
RWRFGF
PRAIRIE TO PINES  WEATHER ROUNDUP
NATIONAL WEATHER SERVICE EASTERN NORTH DAKOTA/GRAND FORKS ND
100 AM CDT TUE SEP 16 2014

 **SATELLITE DATA USED TO AUGMENT SKY COVER AT AUTOMATED STATIONS**
 *****  WEATHER ACROSS EASTERN NORTH DAKOTA  *****

CITY           SKY/WX    TMP DP  RH WIND       PRES   REMARKS
GRAND FORKS    CLEAR     49  40  71 SW7       30.06F
6HR MIN TEMP:  48; 6HR MAX TEMP:  64;

GRAND FRKS AFB CLEAR     46  41  84 SW7       30.07F
GRAND FRKS NWS   N/A     46 N/A N/A W2          N/A
DEVILS LAKE    CLEAR     55  39  54 SW13      30.06S
6HR MIN TEMP:  46; 6HR MAX TEMP:  64;

FARGO          CLEAR     52  38  58 SW12      30.12F
WAHPETON ARPT  CLEAR     39  34  81 S8        30.16S
$$

 ***** WEATHER ACROSS CENTRAL AND WESTERN NORTH DAKOTA  *****

CITY           SKY/WX    TMP DP  RH WIND       PRES   REMARKS
BISMARCK       CLEAR     44  38  79 SE5       30.11F
6HR MIN TEMP:  42; 6HR MAX TEMP:  66;

MINOT          CLEAR     51  39  63 SW7       30.05F
6HR MIN TEMP:  47; 6HR MAX TEMP:  65;

JAMESTOWN      CLEAR     44  37  76 S6        30.12F
6HR MIN TEMP:  44; 6HR MAX TEMP:  61;

MINOT AFB      CLEAR     46  39  77 SW7       30.05S
GARRISON         N/A     47  41  80 CALM      30.08S
WILLISTON      CLEAR     37  32  82 CALM      30.05F
6HR MIN TEMP:  37; 6HR MAX TEMP:  67;

DICKINSON      CLEAR     47  39  74 S12       30.06F
6HR MIN TEMP:  44; 6HR MAX TEMP:  63;

HETTINGER      CLEAR     46  38  73 SE6       30.10F
6HR MIN TEMP:  46; 6HR MAX TEMP:  63;

$$

 *****  OTHER AIRPORT OBSERVATIONS IN OUR AREA  *****

CITY           SKY/WX    TMP DP  RH WIND       PRES   REMARKS
WALHALLA         N/A     55  37  50 W9        30.01F
GRAFTON AIRPOR MOCLDY    46  39  76 SW9       30.04S
VALLEY CITY AR FAIR      48  37  66 SW18G24   30.12S
CANDO          FAIR      39  36  87 SW8       30.06S
CAVALIER APRT  FAIR      50  39  66 SW7       30.02F
GWINNER        CLEAR     43  39  87 SW9       30.17S
SHEYENNE NWR     N/A     43  38  83 SW7       29.95
ROLLA          FAIR      46  37  71 SW9       30.05S
 ***** THE ABOVE OBSERVATIONS ARE NON NWS ARE NOT QUALITY
       CONTROLLED AND MAY MIS-REPORT RAIN FOR SNOW...
$$

  *****  WEATHER ACROSS NORTHERN MINNESOTA  *****

CITY           SKY/WX    TMP DP  RH WIND       PRES   REMARKS
FLAG ISLAND    PTCLDY    52  41  66 SW10      29.97F
WARROAD        PTCLDY    45  41  87 SW7       30.02F
ROSEAU         CLEAR     45  39  81 S8        30.02F
HALLOCK        CLEAR     41  37  87 S3        30.02F
THF RVR FALLS  CLEAR     45  39  81 SW8       30.07S
6HR MIN TEMP:  45; 6HR MAX TEMP:  61;

BAUDETTE       CLEAR     45  39  79 SW6       30.02F
6HR MIN TEMP:  43; 6HR MAX TEMP:  56;

WASKISH        CLEAR     52  45  76 SW7G18    30.06S
CROOKSTON      CLEAR     45  39  81 S7        30.09S
STEPHEN NDAWN    N/A     45  39  81 SW6         N/A
GREENBUSH NDAW   N/A     46  41  81 SW6         N/A
$$
  *****  WEATHER ACROSS CENTRAL AND WEST MINNESOTA  *****

CITY           SKY/WX    TMP DP  RH WIND       PRES   REMARKS
FOSSTON        CLEAR     43  36  75 S6        30.11S
BEMIDJI        CLEAR     46  38  73 SW6       30.10S
PARK RAPIDS    CLEAR     44  39  82 SW7       30.13F
6HR MIN TEMP:  43; 6HR MAX TEMP:  56;

ELBOW LAKE     FAIR      40  36  85 S7        30.17F
6HR MIN TEMP:  40; 6HR MAX TEMP:  57;

WADENA         CLEAR     43  36  75 SW6       30.15S
DETROIT LAKES  CLEAR     50  37  62 SW10      30.14S
MOORHEAD       CLEAR     48  43  81 SW7       30.14S
FERGUS FALLS   CLEAR     45  34  65 S8        30.18S
MORRIS MN      CLEAR     43  36  75 S6        30.18F
STAPLES        CLEAR     45  36  70 SW7       30.16S
$$
  *****  WEATHER ELSEWHERE ACROSS MINNESOTA  *****

CITY           SKY/WX    TMP DP  RH WIND       PRES   REMARKS
DULUTH         CLEAR     45  35  68 SW10      30.13F
6HR MIN TEMP:  42; 6HR MAX TEMP:  53;

INTRNTL FALLS  CLEAR     39  36  89 CALM      30.03F
6HR MIN TEMP:  36; 6HR MAX TEMP:  53;

ELY            MOCLDY    43  36  75 SW6       30.08F
CLOQUET        CLEAR     45  36  70 SW6       30.13F
WHEATON        CLEAR     41  36  81 S8        30.20S
BRAINERD       CLEAR     40  36  86 S6        30.16F
6HR MIN TEMP:  38; 6HR MAX TEMP:  55;

HIBBING        CLEAR     33  31  92 CALM      30.11F
6HR MIN TEMP:  33; 6HR MAX TEMP:  54;

ALEXANDRIA     CLEAR     45  38  76 SW9       30.20S
6HR MIN TEMP:  44; 6HR MAX TEMP:  56;

SAINT CLOUD    CLEAR     43  39  86 CALM      30.19F
6HR MIN TEMP:  42; 6HR MAX TEMP:  59;

MINNEAPOLIS    CLEAR     48  41  76 SW5       30.21F
6HR MIN TEMP:  48; 6HR MAX TEMP:  57;

$$

  *****  WEATHER ACROSS SOUTH DAKOTA  *****

CITY           SKY/WX    TMP DP  RH WIND       PRES   REMARKS
SIOUX FALLS    CLEAR     44  42  93 CALM      30.24S
6HR MIN TEMP:  43; 6HR MAX TEMP:  60;

BROOKINGS      NOT AVBL
WATERTOWN      CLEAR     42  37  82 SE3       30.20F
6HR MIN TEMP:  39; 6HR MAX TEMP:  57;

HURON          CLEAR     44  35  70 S5        30.20F
6HR MIN TEMP:  44; 6HR MAX TEMP:  62;

SISSETON         N/A     43  37  79 SW6       30.17F
ABERDEEN       CLEAR     37  34  89 S5        30.18F
6HR MIN TEMP:  37; 6HR MAX TEMP:  60;

MITCHELL       CLEAR     44  39  82 S7        30.22F
PIERRE         CLEAR     49  38  65 SE12      30.14F
6HR MIN TEMP:  44; 6HR MAX TEMP:  62;

MOBRIDGE       CLEAR     47  42  83 S10       30.12S
RAPID CITY     CLEAR     49  42  77 SE9       30.08F
6HR MIN TEMP:  48; 6HR MAX TEMP:  66;

$$

  *****  SOME WEATHER IN NEARBY STATES *****

CITY           SKY/WX    TMP DP  RH WIND       PRES   REMARKS
GLASGOW MT     CLEAR     47  37  68 E9        30.03S
6HR MIN TEMP:  46; 6HR MAX TEMP:  69;

GREAT FALLS MT CLEAR     51  37  58 CALM      30.02S
6HR MIN TEMP:  46; 6HR MAX TEMP:  75;

CHEYENNE WY    PTCLDY    51  46  83 SW8       30.24F
6HR MIN TEMP:  51; 6HR MAX TEMP:  65;

SCOTTSBLUFF NE PTCLDY    53  48  83 E8        30.16F
6HR MIN TEMP:  53; 6HR MAX TEMP:  70;

OMAHA NE       CLEAR     48  46  93 CALM      30.27S
6HR MIN TEMP:  48; 6HR MAX TEMP:  61;

DES MOINES IA  CLEAR     49  44  83 CALM      30.25S
6HR MIN TEMP:  49; 6HR MAX TEMP:  60;

DAVENPORT IA   CLEAR     43  40  89 W7        30.23R
6HR MIN TEMP:  43; 6HR MAX TEMP:  55;

CHICAGO IL     PTCLDY    51  47  86 NW6       30.18S
6HR MIN TEMP:  51; 6HR MAX TEMP:  57;

EAU CLAIRE WI  CLEAR     43  39  86 CALM      30.20F
6HR MIN TEMP:  40; 6HR MAX TEMP:  54;

LA CROSSE WI   CLEAR     46  43  89 SE5       30.22S
6HR MIN TEMP:  45; 6HR MAX TEMP:  57;

$$

  *****  SOME NATIONAL WEATHER *****

CITY           SKY/WX    TMP DP  RH WIND       PRES   REMARKS
LA GUARDIA NY  CLOUDY    63  54  72 S7        30.05F
6HR MIN TEMP:  63; 6HR MAX TEMP:  66;

RALEIGH NC     CLOUDY    68  65  90 W3        30.10R
6HR MIN TEMP:  68; 6HR MAX TEMP:  71; 6HR PCP: TRACE;

ATLANTA GA     LGT RAIN  72  70  93 CALM      30.12F
6HR MIN TEMP:  72; 6HR MAX TEMP:  76; 6HR PCP:  0.02;

NEW ORLEANS LA MOCLDY    77  75  93 CALM      30.08F
6HR MIN TEMP:  77; 6HR MAX TEMP:  80;

OKLAHOMA CITY  MOCLDY    73  69  87 N3        30.16R
6HR MIN TEMP:  73; 6HR MAX TEMP:  79;

ALBUQUERQUE NM LGT RAIN  68  59  73 W6        30.32R
6HR MIN TEMP:  68; 6HR MAX TEMP:  76; 6HR PCP:  0.41;

SALT LAKE CITY PTCLDY    70  39  32 S9        30.08R
6HR MIN TEMP:  70; 6HR MAX TEMP:  88;




USA.gov is the U.S. government's official web portal to all federal, state and local government web resources and services.